Home > Weather > Guilin > Past weeks

Flag for China Past Weather in Guilin, Guangxi, China — Yesterday and Last 2 Weeks

Now
82 °F

Clear.


Feels Like: 91 °F
Forecast: 73 / 97 °F
Wind: 3 mph from Northwest

Location: Guilin Airport

Current Time: Jul 30, 2016 at 11:08:19 PM

Latest Report: Jul 30, 2016 at 10:00 PM


Visibility: 10 mi

Pressure: 29.74 "Hg

Humidity: 84%

Dew Point: 77 °F

Location of GuilinLocation

Past Weather in Guilin — Graph

°F

Guilin Temperature Yesterday

Maximum temperature yesterday: 97 °F (at 4:00 PM)
Minimum temperature yesterday: 75 °F (at 6:00 AM)
Average temperature yesterday: 85 °F

High & Low Weather Summary for the Past Weeks

 TemperatureHumidityPressure
High100 °F (Jul 25, 4:00 PM)100% (Jul 17, 2:00 AM)29.86 "Hg (Jul 17, 2:00 AM)
Low73 °F (Jul 30, 6:00 AM)39% (Jul 25, 5:00 PM)29.56 "Hg (Jul 18, 5:00 PM)
Average86 °F74%29.74 "Hg
* Reported Jul 15 9:00 PM — Jul 30 9:00 PM, Guilin, Weather by CustomWeather, © 2016

Note: Actual official high and low records may vary slightly from our data, if they occured in-between our weather recording intervals... More about our weather records

Advertising

Guilin Weather History for the Previous 24 Hours

Scroll right to see more
 ConditionsComfort  
Time TempWeatherWind HumidityBarometerVisibility
9:00 PM
Sat, Jul 30
86 °FClear.3 mph75%29.71 "Hg10 mi
8:00 PM90 °FPassing clouds.1 mph63%29.71 "HgN/A
7:00 PM95 °FPassing clouds.3 mph50%29.68 "HgN/A
6:00 PM97 °FPassing clouds.8 mph44%29.68 "HgN/A
5:00 PM99 °FPassing clouds.6 mph42%29.68 "HgN/A
4:00 PM99 °FPassing clouds.6 mph42%29.71 "HgN/A
3:00 PM99 °FPassing clouds.8 mph42%29.71 "HgN/A
2:00 PM97 °FScattered clouds.3 mph44%29.74 "HgN/A
1:00 PM95 °FScattered clouds.3 mph47%29.77 "HgN/A
12:00 PM95 °FPassing clouds.6 mph50%29.80 "HgN/A
11:00 AM91 °FPassing clouds.3 mph56%29.83 "HgN/A
10:00 AM90 °FPassing clouds.3 mph63%29.83 "HgN/A
9:00 AM86 °FSunny.1 mph66%29.83 "Hg10 mi
8:00 AM81 °FSunny.1 mph84%29.83 "Hg10 mi
7:00 AM75 °FSunny.1 mph100%29.80 "Hg10 mi
6:00 AM73 °FClear.3 mph100%29.80 "Hg10 mi
5:00 AM75 °FClear.3 mph100%29.80 "Hg10 mi
4:00 AM77 °FClear.No wind94%29.80 "Hg10 mi
3:00 AM77 °FClear.No wind94%29.80 "Hg10 mi
2:00 AM79 °FClear.No wind89%29.80 "Hg10 mi
1:00 AM79 °FClear.1 mph94%29.80 "Hg10 mi
12:00 AM79 °FClear.No wind94%29.80 "Hg10 mi
11:00 PM
Fri, Jul 29
81 °FClear.No wind84%29.80 "Hg10 mi
Weather by CustomWeather, © 2016

See weather overviewHow to use our weather pages